Simultaneous Nadir Overpasses (SNOs) Predictions

Prediction of SNOs near equator between AQUA and NPP Satellite Orbit:

Table of predicted SNOs near equator for the next 14.0 days since TLE Epoch: 10/27/2019
Index Date (AQUA) Time (AQUA) AQUA Lat,Lon Date (NPP) Time (NPP) NPP Lat,Lon Distance(km) Time Diff (sec)
1 10/29/2019 07:52:39 -5.83, -95.16 10/29/2019 07:42:46 -5.81, -95.29 15.06 593
2 10/29/2019 08:40:54 1.25, 73.44 10/29/2019 08:32:16 1.15, 73.04 45.20 518
3 10/29/2019 09:29:01 3.30,-117.94 10/29/2019 09:21:39 3.42,-118.61 75.22 442
4 11/01/2019 00:08:42 -4.30, 21.05 10/31/2019 23:59:14 -4.26, 20.82 25.50 568
5 11/01/2019 00:56:57 -0.27,-170.36 11/01/2019 00:48:44 -0.39,-170.84 55.67 493
6 11/01/2019 01:45:04 4.83, -1.73 11/01/2019 01:38:07 4.96, -2.49 85.46 417
7 11/03/2019 15:42:53 29.97, -36.62 11/03/2019 15:32:53 30.40, -37.07 64.89 600
8 11/03/2019 16:24:45 -2.78, 137.26 11/03/2019 16:15:42 -2.72, 136.94 35.98 543
9 11/03/2019 17:13:01 -1.73, -54.16 11/03/2019 17:05:13 -1.87, -54.74 66.22 468
10 11/03/2019 18:01:07 6.35, 114.48 11/03/2019 17:54:35 6.50, 113.63 95.61 392
11 11/06/2019 07:52:39 5.77, 84.84 11/06/2019 07:42:46 5.75, 84.70 16.49 593
12 11/06/2019 08:40:47 -1.26,-106.54 11/06/2019 08:32:09 -1.19,-106.95 46.49 518
13 11/06/2019 09:29:02 -3.30, 62.05 11/06/2019 09:21:40 -3.41, 61.37 76.69 442
14 11/09/2019 00:08:42 4.27,-158.95 11/08/2019 23:59:14 4.22,-159.19 27.03 568
15 11/09/2019 00:56:50 0.25, 9.66 11/09/2019 00:48:37 0.35, 9.16 57.01 493
16 11/09/2019 01:45:04 -4.86, 178.27 11/09/2019 01:38:07 -5.00, 177.50 86.94 417




NCC Satellite Simultaneous Nadir Overpasses (SNOs) Prediction Service
